Regional Weather Roundup
Issued by NWS Wakefield, VA

Home | Current Version | Previous Version | Graphics & Text | Print | Product List | Glossary On
Versions: 1 2 3 4 5 6 7 8 9 10 11 12 13 14 15 16 17 18 19 20 21 22 23 24 25 26 27
000
ASUS41 KAKQ 141215
RWRAKQ

REGIONAL WEATHER ROUNDUP
NATIONAL WEATHER SERVICE WAKEFIELD VA
700 AM EST THU DEC 14 2017

Note: "fair" indicates few or no clouds below 12,000 feet with no
significant weather and/or obstructions to visibility. * = Denotes
station may not report precipitation (e.g., rain,snow,etc.),
thunder or fog.

VAZ042-051-052>054-056-141300-
NORTHERN VIRGINIA

CITY           SKY/WX    TMP DP  RH WIND       PRES   REMARKS
WASH NATIONAL  CLOUDY    37  18  46 SW7       29.62R
DULLES         CLOUDY    29  18  63 SW3       29.61R
FORT BELVOIR   CLOUDY    37  18  47 NW3       29.62R
QUANTICO       CLOUDY    40  20  44 NW7       29.64R
FREDERICKSBRG* CLOUDY    39  22  50 SW9       29.61R
STAFFORD*      MOCLDY    37  19  47 W8        29.66R
WARRENTON      CLOUDY    35  16  45 W3        29.61R
CULPEPER*      CLOUDY    34  18  52 CALM      29.63R
MANASSAS*      CLOUDY    34  18  52 W3        29.63R
LEESBURG*      MOCLDY    32  21  64 SW3       29.62R
WINCHESTER     CLOUDY    37  25  60 W17G26    29.59R
FRONT ROYAL*   CLOUDY    41  28  60 MISG      29.58R
LURAY*         MOSUNNY   39  32  75 W12G23    29.60R
$$

VAZ048-049-060>072-079>083-141300-
CENTRAL AND SOUTH CENTRAL VIRGINIA

CITY           SKY/WX    TMP DP  RH WIND       PRES   REMARKS
RICHMOND       PTCLDY    37  20  50 SW12      29.65R
CHESTERFIELD*  NOT AVBL
PETERSBURG*    CLEAR     34  18  51 SW7       29.69R
HANOVER        PTCLDY    39  18  42 S10       29.64R
TAPPAHANNOCK*  CLEAR     38  20  48 S12G17    29.63R
QUINTON*       FAIR      37  20  50 SW8G17    29.64S
CHARLOTTSVILLE CLOUDY    34  19  54 CALM      29.59R
GORDONSVILLE*  CLOUDY    34  19  54 SW6       29.61R
ORANGE*        MOCLDY    32  19  59 SW6       29.60R
LOUISA*        MOCLDY    35  17  49 SW6       29.65R
BUMPASS*       CLOUDY    37  17  44 SW7       29.60R
FARMVILLE*     CLEAR     36  21  54 SW8       29.64R
CREWE*         FAIR      34  19  55 S7        29.66R
FORT PICKETT*  NOT AVBL
CHASE CITY*    FAIR      33  19  57 SW3       29.70R
CLARKSVILLE*   FAIR      32  19  59 SW7       29.71R
SOUTH HILL*    CLEAR     31  22  66 SW5       29.77R
LAWRENCEVILLE* FAIR      32  19  58 SW5       29.71R
EMPORIA*       CLEAR     32  21  64 CALM      29.74R
$$

VAZ088>098-141300-
SOUTHEAST VIRGINIA

CITY           SKY/WX    TMP DP  RH WIND       PRES   REMARKS
NORFOLK        CLEAR     40  21  46 SW13      29.70R
VIRGINIA BEACH CLEAR     37  20  50 SW10      29.70R
NORFOLK NAVAL  PTCLDY    40  21  46 SW16G23   29.71R
WEST POINT*    CLEAR    N/A N/A N/A SW13G20   29.67R
SALUDA*        FAIR      37  21  52 SW12G17   29.64R
NEWPORT NEWS   CLEAR     39  22  50 SW15G23   29.69R
LANGLEY AFB    CLEAR     39  22  51 SW16      29.68R
FORT EUSTIS    CLEAR     38  21  50 SW13G18   29.66R
WILLIAMSBURG*  CLEAR     39  21  48 W13G22    29.69R
HR EXEC AP*    FAIR      36  22  56 SW8       29.72R
FRANKLIN*      CLEAR     35  21  57 SW5       29.73R
US460-WAKEFLD  CLEAR     35  21  56 SW7       29.70R
$$

VAZ020-022-025-037-045-141300-
WEST CENTRAL AND SOUTHWEST VIRGINIA

CITY           SKY/WX    TMP DP  RH WIND       PRES   REMARKS
STAUNTON*      CLOUDY    40  25  53 W18G38    29.60R
WAYNESBORO*    CLOUDY    42  23  46 W14G30    29.59R
HOT SPRINGS VA CLOUDY    31  23  71 W20G40    29.55R WCI  19
LYNCHBURG      PTCLDY    29  18  63 S3        29.64R
DANVILLE       CLEAR     31  19  61 S8        29.73R
SOUTH BOSTON*  FAIR      34  17  49 SW7       29.71R
MARTINSVILLE   CLEAR     29  16  60 CALM      29.74R
ROANOKE        PTCLDY    45  24  43 W23G35    29.66R
BLACKSBURG     CLOUDY    39  25  55 W7G17     29.69R
DUBLIN*        PTCLDY    40  24  52 W16G26    29.69R
MARION*        CLOUDY    36  20  52 W24G33    29.71R WCI  24
HILLSVILLE*    CLEAR     36  22  56 NW22G32   29.66R WCI  25
RICHLANDS*     CLOUDY    35  21  57 W12G17    29.75R
WISE*          CLOUDY    36  28  75 W9G18     29.77R
ABINGDON*      CLEAR     36  23  60 W8        29.78R
$$

MDZ021>025-VAZ099-100-141300-
SOUTHERN MARYLAND AND THE DELMARVA PENINSULA

CITY           SKY/WX    TMP DP  RH WIND       PRES   REMARKS
PATUXENT RIVER MOCLDY    40  21  46 SW14G22   29.59R
BAY BRIDGE APT CLOUDY    39  23  52 W13G22    29.60R
LEONARDTOWN    CLOUDY    37  23  56 SW13G20   29.60R
DOVER          CLOUDY    36  27  71 W7        29.57R
GEORGETOWN     CLOUDY    37  24  59 SW6       29.58R
EASTON         MOCLDY    41  23  48 W9        29.63R
CAMBRIDGE      CLOUDY    39  23  52 SW7       29.58R
SALISBURY      PTCLDY    38  26  62 SW13      29.58R
OCEAN CITY     CLEAR     35  27  72 SW8       29.60R
WALLOPS ISLAND CLEAR     41  26  55 SW13G24   29.61R
ACCOMACK*      CLEAR     41  26  56 SW17G23   29.64R
$$

NCZ012>017-030>032-141300-
NORTH CENTRAL AND EASTERN NORTH CAROLINA

CITY           SKY/WX    TMP DP  RH WIND       PRES   REMARKS
ROANOKE RAPIDS FAIR      34  23  64 CALM      29.73R
RALEIGH        CLEAR     31  20  63 SW7       29.76R
ELIZABETH CITY PTCLDY    39  26  59 SW13      29.73R
AHOSKIE*       CLEAR     33  22  64 CALM      29.74R
EDENTON*       PTCLDY    42  27  56 SW14G20   29.75R
CURRITUCK*     PTCLDY    39  25  57 SW13      29.72R
KILL DEVIL HLS PTCLDY    41  25  52 SW9G18    29.72R
MANTEO         PTCLDY    41  27  57 W14       29.74R
CAPE HATTERAS  CLEAR     47  26  44 W20G25    29.77R
TARBORO*       NOT AVBL
GOLDSBORO      CLEAR     36  23  59 SW9       29.77R
WASHINGTON     CLEAR     37  24  59 SW7       29.77R
GREENVILLE     CLEAR     37  23  56 SW8       29.79R
NEW BERN       CLEAR     40  24  53 SW12      29.81R
WILMINGTON     CLEAR     41  26  55 SW10      29.84R
$$

VAZ048-141300-
ELSEWHERE

CITY           SKY/WX    TMP DP  RH WIND       PRES   REMARKS
HARRISBURG PA  FLURRIES  26  23  88 NW9       29.59R
BALTIMORE      FLURRIES  36  20  52 W9        29.60R
ANNAPOLIS      CLOUDY    38  21  50 W7        29.60R
ANDREWS AFB    CLOUDY    37  18  46 W10       29.60R
PHILADELPHIA   CLOUDY    32  27  81 W6        29.58R
HENDERSON NC   CLEAR     31  17  57 SW7       29.72R
GREENSBORO     CLEAR     31  18  58 SW7       29.72R
ROCKY MOUNT    CLEAR     35  24  64 SW9       29.76R
$$

VAZ100-141300-
MARINE

STATION/POSITION TIME  TEMP    WIND        PRES    WAVE   SWELL
                       AIR SEA DIR/SP/G            HT/PER HT/PER
                 (UTC) (F)     (DEG/KT/KT) (MB)    (FT/S) (FT/S)
BRANDYWINE LGT   1142   40     240/ 25/ 27 1001.0R
CAPE MAY NJ      1148   39 38  250/ 20/ 22 1000.5R
LEWES DE         1148   37 43  250/  7/ 11 1001.3R
15NM E FENWICK I 1150   45 52  230/ 23/ 27 1001.6R   7/ 7   2/11
OCEAN-CITY-INLET 1142   39 46  260/ 10/ 12 1002.2R
WACHAPREAGUE VA  1148   41 38  230/ 10/ 14 1003.5R
THOMAS POINT MD  1200   39 44  260/ 17/ 20   N/A
GOOSES REEF MD   1200   42 46  260/ 17/ 21 1002.8    2/ 3
COVE POINT MD    1148   40     270/ 13/ 20 1002.3R
SOLOMONS ISLAND  1130   41 45  240/ 19/ 21 1001.2R
BISHOPS HEAD MD  1148   42 34  230/ 24/ 27 1001.6R
PINEY POINT MD   1148          250/ 11/ 15   N/A
POTOMAC MD       1150   42     230/ 21/ 25 1001.2R
CAMBRIDGE MD     1148   40 41              1002.2R
LEWISETTA VA     1148   40 41  240/ 15/ 21 1002.3R
RAPPAHANNOCK LGT 1148          230/ 25/ 29 1003.9R
STINGRAY PT      1150   41     260/ 21/ 25 1003.5R
YORK RVR RNG VA  1148   42     260/ 20/ 23 1004.8R
YORKTOWN VA      1148   40 47  230/ 15/ 20 1004.2R
JAMESTOWN VA     1150          240/ 17/ 23   N/A
DOMINION TERM VA 1148   41     240/ 16/ 21 1005.6R
KIPTOPEKE VA     1148      43  260/ 24/ 29   N/A
CAPE HENRY VA    1148   40     220/ 13/ 19   N/A
WILLOUBY STN VA  1142          240/ 23/ 26 1004.5R
S CRANEY ISL VA  1148   39     230/ 10/ 13 1005.5R
CAPE HENRY BUOY  1100      53                N/A     5/ 5
1ST LANDING BUOY 1200   43 51  250/ 19/ 25 1005.3    2/ 3
CAPE CHARLES BUO 1151      51                N/A     5/ 4
64NM E OF VA BCH 1150   50 60  250/ 27/ 33 1004.3R   9/ 6
DUCK PIER NC     1148   42 52  250/ 17/ 20 1006.1R
44100 DUCK FRF   1145      54                N/A     4/ 4
44056 DUCK FRF   1200      55                N/A     2/ 2
OREGON INLET NC  1142   43 42  220/ 20/ 23 1006.6R
HATTERAS NC      1148   47 50  250/ 15/ 25 1007.8R
DIAMOND SHLS NC  1150   57 74  250/ 25/ 31 1007.9R  11/ 8
CAPE LOOKOUT NC  1100          250/ 20/ 24 1008.7R
$$




USA.gov is the U.S. government's official web portal to all federal, state and local government web resources and services.